EUTELSAT HOTBIRD 13G

Last updated on Tue Sep 16 2025 00:02:50 GMT+0000 (Coordinated Universal Time)

1 54225U 22146A 25258.33239146 .00000071 00000+0 00000+0 0 9992 2 54225 0.0528 235.3485 0002148 313.0914 298.7840 1.00271698 4715
UTC large
Height (km)
Speed (km/s)
/
Latitude / Longitude
Inclination (degrees)
Orbital Period (minutes)
Azimuth
Elevation
Range (km)
Doppler Factor

Next 0 passes for location: London (51.5072 / 0.1276)

Sorry there are no passes over London.